Preview of NWS' New Version of Forecast
This preview is not operational and should not be used for support decisions.

Regional Weather Roundup (RWR)

Issued by Gray - Portland, ME (GYX)

                            
000
ASUS41 KGYX 220010
RWRGYX
WEATHER ROUNDUP FOR MAINE AND NEW HAMPSHIRE
NATIONAL WEATHER SERVICE GRAY ME
800 PM EDT TUE MAY 21 2019

MEZ002-005-006-010-012-015-018-020-021-024-026-027-029-220100-
MAINE
  
CITY           SKY/WX    TMP DP  RH WIND       PRES   REMARKS
PORTLAND       FAIR      56  36  47 NW15G24   29.83R                  
6HR MIN TEMP:  56; 6HR MAX TEMP:  64;                                

SANFORD        MOCLDY    56  37  49 W13       29.87R                  
BAR HARBOR     MOCLDY    53  39  59 NW14G20   29.72R                  
WISCASSET      FAIR      55  35  47 W8        29.81R                  
6HR MIN TEMP:  55; 6HR MAX TEMP:  62;                                

ROCKLAND       FAIR      55  37  50 NW13G23   29.76R                  
FRYEBURG       MOCLDY    54  35  48 NW9G21    29.85R                  
6HR MIN TEMP:  52; 6HR MAX TEMP:  58; 6HR PCP: TRACE;                

LEWISTONAUBURN MOCLDY    54  38  54 NW14      29.83R                  
AUGUSTA        MOCLDY    54  36  50 NW15G28   29.81R                  
6HR MIN TEMP:  53; 6HR MAX TEMP:  57; 6HR PCP:  0.01;                

WATERVILLE     MOCLDY    53  37  54 NW13G21   29.77R                  
BANGOR         MOCLDY    54  37  52 N18G38    29.74R                  
6HR MIN TEMP:  52; 6HR MAX TEMP:  61; 6HR PCP: TRACE;                

GREENVILLE       N/A     46  36  68 NW22G33   29.74R                  
6HR MIN TEMP:  43; 6HR MAX TEMP:  50; 6HR PCP:  0.01;                

MILLINOCKET    CLOUDY    50  39  66 NW10      29.75R                  
6HR MIN TEMP:  50; 6HR MAX TEMP:  58;                                

HOULTON        CLOUDY    43  38  82 N13G22    29.70R                  
6HR MIN TEMP:  42; 6HR MAX TEMP:  50; 6HR PCP:  0.08;                

PRESQUE ISLE   LGT RAIN  41  38  89 N15       29.76R                  
6HR MIN TEMP:  41; 6HR MAX TEMP:  48;                                

FRENCHVILLE    LGT RAIN  42  37  82 N14       29.76R                  
6HR MIN TEMP:  42; 6HR MAX TEMP:  46; 6HR PCP:  0.08;                

CARIBOU        LGT RAIN  42  38  85 N9        29.74R                  
6HR MIN TEMP:  42; 6HR MAX TEMP:  48; 6HR PCP:  0.06;                

$$

NHZ002-005-008-009-011-012-014-220100-
NEW HAMPSHIRE
  
CITY           SKY/WX    TMP DP  RH WIND       PRES   REMARKS
PORTSMOUTH     PTCLDY    57  35  42 NW17      29.86R                  
ROCHESTER      FAIR      56  35  45 NW15G26   29.87R                  
6HR MIN TEMP:  56; 6HR MAX TEMP:  63; 6HR PCP: TRACE;                

NASHUA         FAIR      61  34  36 NW18G24   29.91R                  
MANCHESTER     MOCLDY    61  32  33 NW9G26    29.90R                  
6HR MIN TEMP:  61; 6HR MAX TEMP:  66; 6HR PCP: TRACE;                

CONCORD        CLOUDY    58  34  40 NW22G31   29.91R                  
6HR MIN TEMP:  58; 6HR MAX TEMP:  64; 6HR PCP: TRACE;                

LACONIA        FAIR      54  37  52 NW14G21   29.90R                  
PLYMOUTH       MOCLDY    55  37  52 NW9G20    29.91R                  
BERLIN         CLOUDY    52  36  54 NW13G23   29.88R                  
6HR MIN TEMP:  49; 6HR MAX TEMP:  55; 6HR PCP:  0.01;                

WHITEFIELD     FAIR      49  38  65 NW17G26   29.91R                  
6HR MIN TEMP:  47; 6HR MAX TEMP:  53; 6HR PCP:  0.02;                

JAFFREY        FAIR      58  30  34 NW14G23   29.94R                  
6HR MIN TEMP:  58; 6HR MAX TEMP:  63;                                

KEENE          MOCLDY    59  33  37 NW9G23    29.93R                  
LEBANON        FAIR      58  33  39 NW17G28   29.94R                  
6HR MIN TEMP:  57; 6HR MAX TEMP:  62; 6HR PCP: TRACE;                

MT WASHINGTON  SNOWSHWR  27  27 100 NW79G96     N/A  VSB 1/16WCI   3  
6HR MIN TEMP:  26; 6HR MAX TEMP:  28; 6HR PCP:  0.16;                

$$

VTZ005-007-008-220100-
VERMONT
  
CITY           SKY/WX    TMP DP  RH WIND       PRES   REMARKS
ST JOHNSBURY     N/A     53  38  56 MISG      29.92R                  
MONTPELIER     CLOUDY    54  34  46 NW15G25   30.00R                  
BURLINGTON     MOCLDY    58  34  40 NW21G26   29.99R                  
$$

MAZ007-012-024-CTZ003-RIZ002-NYZ038-NYZ072-220100-
SOUTHERN NEW ENGLAND AND NY
  
CITY           SKY/WX    TMP DP  RH WIND       PRES   REMARKS
BOSTON         FAIR      65  32  29 NW23G35   29.89R                  
WORCESTER      FAIR      58  32  37 NW16G25   29.94R                  
NANTUCKET      FAIR      59  42  53 N9        29.87R                  
PROVIDENCE     MOCLDY    64  31  28 NW18G29   29.91R                  
HARTFORD       MOCLDY    64  30  27 N13G23    29.96R                  
ALBANY         FAIR      62  33  33 NW16      30.00R                  
NEW YORK CITY  MOCLDY    68  33  27 N21G28    29.99R                  
$$

ANZ081-ANZ082-ANZ150-NHZ014-MEZ023>029-220100-
COASTAL MARINE OBSERVATIONS
  
STATION/POSITION TIME  TEMP    WIND        PRES    WAVE
                       AIR SEA DIR/SP/G            HT/PER
                 (UTC) (F)     (DEG/KT/KT) (MB)    (FT/S)
ISLE OF SHOALS   2300   58     300/ 20/ 24 1009.9R
JEFFREYS LEDGE   2338      47                N/A     4/ 5
CASHES LEDGE BUO 2350   51 47              1008.6R   5/ 6
GEORGES BANK BUO 2350   48 45  260/ 14/ 17 1009.7R   6/ 7
$$

.............KEY..............
   WCI - WIND CHILL
   TC  - TEMPERATURE IN CELSIUS
   VSB - VISIBILITY IN MILES
   HX  - HEAT INDEX
   FAIR- INDICATES FEW OR NO CLOUDS BELOW 12,000 FT, WITH NO 
         SIGNIFICANT WEATHER AND/OR OBSTRUCTIONS TO VISIBILITY.